| time (UTC) | temp C | wind direction | speed KPH | gust KPH | rain 1hr cm | rain 24hr cm | rain mn cm | humidity % | barometer mb |
| 20260505152002 | 21 | 206 | 16.1 | 35.4 | 0.00 | 0.00 | 0.00 | 42 | 1003.3 |
| 20260505151500 | 21 | 212 | 17.7 | 35.4 | 0.00 | 0.00 | 0.00 | 42 | 1003.4 |
| 20260505151100 | 21 | 237 | 12.9 | 30.6 | 0.00 | 0.00 | 0.00 | 43 | 1003.4 |
| 20260505150559 | 21 | 187 | 8.0 | 22.5 | 0.00 | 0.00 | 0.00 | 45 | 1003.5 |
| 20260505140545 | 19 | 230 | 9.7 | 29.0 | 0.00 | 0.00 | 0.00 | 49 | 1003.8 |
| 20260505125024 | 16 | 201 | 6.4 | 19.3 | 0.00 | 0.00 | 0.00 | 58 | 1004.6 |
| 20260505124523 | 16 | 213 | 8.0 | 25.7 | 0.00 | 0.00 | 0.00 | 59 | 1004.7 |
| 20260505124020 | 16 | 199 | 8.0 | 25.7 | 0.00 | 0.00 | 0.00 | 60 | 1004.8 |
| 20260505123525 | 16 | 235 | 3.2 | 29.0 | 0.00 | 0.00 | 0.00 | 59 | 1004.6 |
| 20260505123019 | 16 | 266 | 9.7 | 29.0 | 0.00 | 0.00 | 0.00 | 59 | 1004.6 |
| 20260505122518 | 16 | 209 | 8.0 | 25.7 | 0.00 | 0.00 | 0.00 | 59 | 1004.5 |
| 20260505122021 | 15 | 207 | 14.5 | 25.7 | 0.00 | 0.00 | 0.00 | 59 | 1004.5 |
| 20260505121516 | 15 | 206 | 9.7 | 27.4 | 0.00 | 0.00 | 0.00 | 60 | 1004.4 |
| 20260505121014 | 15 | 167 | 8.0 | 20.9 | 0.00 | 0.00 | 0.00 | 61 | 1004.3 |
| 20260505120515 | 15 | 200 | 4.8 | 20.9 | 0.00 | 0.00 | 0.00 | 62 | 1004.2 |
| 20260505120012 | 15 | 188 | 6.4 | 20.9 | 0.00 | 0.00 | 0.00 | 62 | 1004.1 |
| 20260505115513 | 15 | 231 | 8.0 | 29.0 | 0.00 | 0.00 | 0.00 | 62 | 1003.9 |
| 20260505115013 | 15 | 173 | 12.9 | 22.5 | 0.00 | 0.00 | 0.00 | 60 | 1004.0 |
| 20260505114512 | 15 | 194 | 6.4 | 22.5 | 0.00 | 0.00 | 0.00 | 60 | 1003.9 |
| 20260505114010 | 15 | 134 | 6.4 | 29.0 | 0.00 | 0.00 | 0.00 | 60 | 1003.9 |
| 20260505113514 | 15 | 216 | 9.7 | 29.0 | 0.00 | 0.00 | 0.00 | 60 | 1004.1 |
| 20260505113011 | 14 | 197 | 8.0 | 22.5 | 0.00 | 0.00 | 0.00 | 60 | 1004.3 |
| 20260505112511 | 14 | 212 | 6.4 | 33.8 | 0.00 | 0.00 | 0.00 | 61 | 1004.3 |
| 20260505112010 | 14 | 205 | 14.5 | 33.8 | 0.00 | 0.00 | 0.00 | 60 | 1004.3 |
| 20260505111510 | 14 | 198 | 14.5 | 33.8 | 0.00 | 0.00 | 0.00 | 60 | 1004.3 |
| 20260505111009 | 14 | 194 | 14.5 | 33.8 | 0.00 | 0.00 | 0.00 | 61 | 1004.1 |
| 20260505110506 | 14 | 228 | 9.7 | 27.4 | 0.00 | 0.00 | 0.00 | 60 | 1004.1 |
| 20260505102002 | 13 | 180 | 9.7 | 19.3 | 0.00 | 0.00 | 0.00 | 65 | 1003.5 |
| 20260505101600 | 13 | 146 | 9.7 | 20.9 | 0.00 | 0.00 | 0.00 | 64 | 1003.6 |
| 20260505101058 | 13 | 188 | 8.0 | 17.7 | 0.00 | 0.00 | 0.00 | 64 | 1003.5 |
| 20260505100557 | 13 | 190 | 6.4 | 17.7 | 0.00 | 0.00 | 0.00 | 65 | 1003.6 |
| 20260505100056 | 12 | 184 | 6.4 | 14.5 | 0.00 | 0.00 | 0.00 | 66 | 1003.7 |
| 20260505095556 | 12 | 196 | 3.2 | 12.9 | 0.00 | 0.00 | 0.00 | 67 | 1003.7 |
| 20260505095056 | 12 | 176 | 4.8 | 12.9 | 0.00 | 0.00 | 0.00 | 68 | 1003.7 |
| 20260505094554 | 12 | 168 | 4.8 | 14.5 | 0.00 | 0.00 | 0.00 | 69 | 1003.9 |
| 20260505094055 | 12 | 180 | 6.4 | 16.1 | 0.00 | 0.00 | 0.00 | 70 | 1004.0 |
| 20260505093553 | 12 | 183 | 9.7 | 16.1 | 0.00 | 0.00 | 0.00 | 70 | 1004.0 |
| 20260505093053 | 12 | 183 | 6.4 | 12.9 | 0.00 | 0.00 | 0.00 | 70 | 1004.0 |
| 20260505092555 | 12 | 177 | 3.2 | 14.5 | 0.00 | 0.00 | 0.00 | 70 | 1004.1 |
| 20260505092050 | 12 | 169 | 4.8 | 11.3 | 0.00 | 0.00 | 0.00 | 70 | 1004.2 |
| 20260505091604 | 13 | 211 | 4.8 | 14.5 | 0.00 | 0.00 | 0.00 | 68 | 1004.1 |
| 20260505091048 | 13 | 190 | 3.2 | 19.3 | 0.00 | 0.00 | 0.00 | 66 | 1004.1 |
| 20260505090546 | 14 | 189 | 9.7 | 22.5 | 0.00 | 0.00 | 0.00 | 57 | 1004.4 |
| 20260505090049 | 14 | 221 | 9.7 | 22.5 | 0.00 | 0.00 | 0.00 | 56 | 1004.1 |
| 20260505085545 | 13 | 201 | 8.0 | 27.4 | 0.00 | 0.00 | 0.00 | 54 | 1003.9 |
| 20260505085045 | 13 | 148 | 9.7 | 27.4 | 0.00 | 0.00 | 0.00 | 54 | 1003.9 |
| 20260505084548 | 13 | 188 | 9.7 | 17.7 | 0.00 | 0.00 | 0.00 | 54 | 1003.8 |
| 20260505084044 | 13 | 173 | 8.0 | 19.3 | 0.00 | 0.00 | 0.00 | 54 | 1003.9 |
| 20260505083543 | 13 | 196 | 8.0 | 19.3 | 0.00 | 0.00 | 0.00 | 53 | 1003.9 |
| 20260505083044 | 13 | 182 | 6.4 | 16.1 | 0.00 | 0.00 | 0.00 | 53 | 1003.9 |
| 20260505082543 | 13 | 169 | 8.0 | 14.5 | 0.00 | 0.00 | 0.00 | 53 | 1003.9 |
| 20260505082043 | 13 | 182 | 8.0 | 16.1 | 0.00 | 0.00 | 0.00 | 53 | 1003.8 |
| 20260505081543 | 13 | 215 | 4.8 | 16.1 | 0.00 | 0.00 | 0.00 | 53 | 1004.1 |
| 20260505081043 | 13 | 186 | 3.2 | 12.9 | 0.00 | 0.00 | 0.00 | 53 | 1004.1 |
| 20260505080545 | 13 | 211 | 4.8 | 11.3 | 0.00 | 0.00 | 0.00 | 53 | 1004.2 |
| 20260505080044 | 13 | 210 | 4.8 | 11.3 | 0.00 | 0.00 | 0.00 | 55 | 1004.3 |
| 20260505075545 | 13 | 209 | 3.2 | 8.0 | 0.00 | 0.00 | 0.00 | 56 | 1004.4 |
| 20260505075042 | 13 | 173 | 3.2 | 9.7 | 0.00 | 0.00 | 0.00 | 56 | 1004.6 |
| 20260505074541 | 13 | 50 | 0.0 | 16.1 | 0.00 | 0.00 | 0.00 | 56 | 1004.6 |
| 20260505074039 | 13 | 5 | 1.6 | 16.1 | 0.00 | 0.00 | 0.00 | 55 | 1004.6 |
| 20260505073539 | 13 | 253 | 3.2 | 17.7 | 0.00 | 0.00 | 0.00 | 55 | 1004.5 |
| 20260505073043 | 13 | 205 | 9.7 | 22.5 | 0.00 | 0.00 | 0.00 | 55 | 1004.4 |
| 20260505072640 | 13 | 244 | 6.4 | 22.5 | 0.00 | 0.00 | 0.00 | 55 | 1004.3 |
| 20260505072038 | 14 | 229 | 11.3 | 25.7 | 0.00 | 0.00 | 0.00 | 51 | 1004.4 |
| 20260505071536 | 14 | 217 | 14.5 | 25.7 | 0.00 | 0.00 | 0.00 | 50 | 1004.2 |
| 20260505071035 | 14 | 217 | 12.9 | 30.6 | 0.00 | 0.00 | 0.00 | 50 | 1004.0 |
| 20260505070536 | 14 | 194 | 14.5 | 30.6 | 0.00 | 0.00 | 0.00 | 50 | 1004.0 |
| 20260505070041 | 14 | 180 | 17.7 | 25.7 | 0.00 | 0.00 | 0.00 | 49 | 1003.9 |
| 20260505065535 | 14 | 182 | 14.5 | 29.0 | 0.00 | 0.00 | 0.00 | 50 | 1003.8 |
| 20260505065034 | 14 | 145 | 14.5 | 33.8 | 0.00 | 0.00 | 0.00 | 49 | 1003.8 |
| 20260505064535 | 14 | 190 | 16.1 | 33.8 | 0.00 | 0.00 | 0.00 | 49 | 1003.8 |
| 20260505064032 | 14 | 178 | 12.9 | 33.8 | 0.00 | 0.00 | 0.00 | 50 | 1003.8 |
| 20260505063532 | 14 | 215 | 20.9 | 35.4 | 0.00 | 0.00 | 0.00 | 49 | 1003.8 |
| 20260505063031 | 14 | 182 | 11.3 | 35.4 | 0.00 | 0.00 | 0.00 | 50 | 1003.9 |
| 20260505062532 | 14 | 201 | 16.1 | 37.0 | 0.00 | 0.00 | 0.00 | 51 | 1003.8 |
| 20260505062029 | 14 | 162 | 16.1 | 35.4 | 0.00 | 0.00 | 0.00 | 49 | 1003.8 |
| 20260505061538 | 14 | 159 | 16.1 | 27.4 | 0.00 | 0.00 | 0.00 | 49 | 1003.9 |
| 20260505061027 | 14 | 186 | 14.5 | 25.7 | 0.00 | 0.00 | 0.00 | 49 | 1003.9 |
| 20260505060527 | 14 | 208 | 16.1 | 27.4 | 0.00 | 0.00 | 0.00 | 49 | 1004.1 |
| 20260505060026 | 14 | 223 | 12.9 | 27.4 | 0.00 | 0.00 | 0.00 | 49 | 1004.0 |
| 20260505055525 | 14 | 171 | 11.3 | 29.0 | 0.00 | 0.00 | 0.00 | 49 | 1004.0 |
| 20260505055026 | 14 | 177 | 17.7 | 29.0 | 0.00 | 0.00 | 0.00 | 49 | 1004.1 |
| 20260505054533 | 14 | 163 | 16.1 | 29.0 | 0.00 | 0.00 | 0.00 | 48 | 1004.0 |
| 20260505054025 | 14 | 201 | 12.9 | 29.0 | 0.00 | 0.00 | 0.00 | 48 | 1004.1 |
| 20260505053527 | 15 | 177 | 12.9 | 33.8 | 0.00 | 0.00 | 0.00 | 47 | 1004.1 |
| 20260505053023 | 15 | 152 | 17.7 | 33.8 | 0.00 | 0.00 | 0.00 | 47 | 1004.2 |
| 20260505052521 | 15 | 173 | 16.1 | 38.6 | 0.00 | 0.00 | 0.00 | 47 | 1004.1 |
| 20260505052020 | 15 | 202 | 12.9 | 41.8 | 0.00 | 0.00 | 0.00 | 46 | 1004.1 |
| 20260505051521 | 15 | 209 | 19.3 | 41.8 | 0.00 | 0.00 | 0.00 | 46 | 1004.2 |
| 20260505051019 | 15 | 166 | 12.9 | 32.2 | 0.00 | 0.00 | 0.00 | 46 | 1004.3 |
| 20260505050521 | 15 | 192 | 12.9 | 29.0 | 0.00 | 0.00 | 0.00 | 47 | 1004.3 |
| 20260505041517 | 15 | 185 | 9.7 | 24.1 | 0.00 | 0.00 | 0.00 | 46 | 1004.3 |
| 20260505041008 | 15 | 198 | 12.9 | 25.7 | 0.00 | 0.00 | 0.00 | 46 | 1004.2 |
| 20260505040507 | 15 | 182 | 11.3 | 25.7 | 0.00 | 0.00 | 0.00 | 46 | 1004.3 |
| 20260505040007 | 15 | 167 | 11.3 | 22.5 | 0.00 | 0.00 | 0.00 | 46 | 1004.3 |
| 20260505035511 | 15 | 177 | 12.9 | 22.5 | 0.00 | 0.00 | 0.00 | 45 | 1004.3 |
| 20260505035006 | 15 | 211 | 11.3 | 27.4 | 0.00 | 0.00 | 0.00 | 45 | 1004.2 |
| 20260505034505 | 15 | 191 | 11.3 | 27.4 | 0.00 | 0.00 | 0.00 | 45 | 1004.1 |
| 20260505034005 | 15 | 168 | 12.9 | 25.7 | 0.00 | 0.00 | 0.00 | 44 | 1004.1 |
| 20260505033506 | 15 | 155 | 9.7 | 25.7 | 0.00 | 0.00 | 0.00 | 44 | 1004.1 |
| 20260505033005 | 15 | 131 | 11.3 | 24.1 | 0.00 | 0.00 | 0.00 | 44 | 1004.1 |
| 20260505032505 | 15 | 195 | 6.4 | 22.5 | 0.00 | 0.00 | 0.00 | 44 | 1004.3 |
| 20260505032006 | 15 | 174 | 11.3 | 24.1 | 0.00 | 0.00 | 0.00 | 44 | 1004.3 |
| 20260505031507 | 15 | 188 | 12.9 | 22.5 | 0.00 | 0.00 | 0.00 | 43 | 1004.3 |
| 20260505031007 | 15 | 148 | 11.3 | 19.3 | 0.00 | 0.00 | 0.00 | 43 | 1004.3 |
| 20260505030503 | 15 | 192 | 9.7 | 22.5 | 0.00 | 0.00 | 0.00 | 42 | 1004.3 |
| 20260505030003 | 15 | 177 | 12.9 | 29.0 | 0.00 | 0.00 | 0.00 | 42 | 1004.3 |
| 20260505025504 | 16 | 133 | 11.3 | 29.0 | 0.00 | 0.00 | 0.00 | 41 | 1004.4 |
| 20260505025004 | 16 | 202 | 12.9 | 22.5 | 0.00 | 0.00 | 0.00 | 41 | 1004.4 |
| 20260505024504 | 16 | 187 | 11.3 | 22.5 | 0.00 | 0.00 | 0.00 | 41 | 1004.4 |
| 20260505024003 | 16 | 151 | 9.7 | 22.5 | 0.00 | 0.00 | 0.00 | 41 | 1004.4 |
| 20260505023503 | 16 | 186 | 9.7 | 17.7 | 0.00 | 0.00 | 0.00 | 41 | 1004.6 |
| 20260505023008 | 16 | 181 | 8.0 | 17.7 | 0.00 | 0.00 | 0.00 | 40 | 1004.5 |
| 20260505022502 | 16 | 182 | 9.7 | 20.9 | 0.00 | 0.00 | 0.00 | 40 | 1004.6 |
| 20260505022003 | 16 | 186 | 8.0 | 17.7 | 0.00 | 0.00 | 0.00 | 40 | 1004.6 |
| 20260505021502 | 16 | 176 | 8.0 | 17.7 | 0.00 | 0.00 | 0.00 | 40 | 1004.5 |
| 20260505021001 | 16 | 139 | 8.0 | 14.5 | 0.00 | 0.00 | 0.00 | 39 | 1004.7 |
| 20260505020501 | 16 | 175 | 6.4 | 12.9 | 0.00 | 0.00 | 0.00 | 40 | 1004.6 |
| 20260505020002 | 16 | 174 | 6.4 | 17.7 | 0.00 | 0.00 | 0.00 | 40 | 1004.7 |
| 20260505015502 | 16 | 163 | 8.0 | 17.7 | 0.00 | 0.00 | 0.00 | 39 | 1004.8 |
| 20260505015100 | 16 | 165 | 8.0 | 16.1 | 0.00 | 0.00 | 0.00 | 39 | 1004.8 |
| 20260505014610 | 16 | 164 | 6.4 | 17.7 | 0.00 | 0.00 | 0.00 | 39 | 1004.8 |
| 20260505014100 | 16 | 136 | 4.8 | 17.7 | 0.00 | 0.00 | 0.00 | 38 | 1004.8 |
| 20260505013559 | 16 | 187 | 6.4 | 14.5 | 0.00 | 0.00 | 0.00 | 38 | 1004.7 |
| 20260505013059 | 16 | 187 | 6.4 | 14.5 | 0.00 | 0.00 | 0.00 | 38 | 1004.8 |
| 20260505013001 | 16 | 155 | 6.4 | 11.3 | 0.00 | 0.00 | 0.00 | 38 | 1004.8 |
| 20260505012600 | 16 | 156 | 4.8 | 12.9 | 0.00 | 0.00 | 0.00 | 38 | 1004.8 |
| 20260505012058 | 16 | 165 | 3.2 | 9.7 | 0.00 | 0.00 | 0.00 | 39 | 1004.8 |
| 20260505011606 | 16 | 167 | 4.8 | 8.0 | 0.00 | 0.00 | 0.00 | 38 | 1004.7 |
| 20260505011057 | 16 | 155 | 4.8 | 9.7 | 0.00 | 0.00 | 0.00 | 38 | 1004.8 |
| 20260505010557 | 16 | 151 | 4.8 | 8.0 | 0.00 | 0.00 | 0.00 | 38 | 1004.7 |
| 20260505010057 | 16 | 142 | 4.8 | 12.9 | 0.00 | 0.00 | 0.00 | 38 | 1004.7 |
| 20260505005557 | 16 | 158 | 4.8 | 14.5 | 0.00 | 0.00 | 0.00 | 38 | 1004.5 |
| 20260505005059 | 16 | 150 | 3.2 | 9.7 | 0.00 | 0.00 | 0.00 | 38 | 1004.5 |
| 20260505004557 | 16 | 178 | 3.2 | 8.0 | 0.00 | 0.00 | 0.00 | 38 | 1004.5 |
| 20260505004057 | 16 | 142 | 3.2 | 9.7 | 0.00 | 0.00 | 0.00 | 37 | 1004.5 |
| 20260505003557 | 16 | 123 | 3.2 | 8.0 | 0.00 | 0.00 | 0.00 | 38 | 1004.6 |
| 20260505003056 | 16 | 169 | 3.2 | 8.0 | 0.00 | 0.00 | 0.00 | 37 | 1004.5 |
| 20260505002556 | 16 | 182 | 3.2 | 9.7 | 0.00 | 0.00 | 0.00 | 37 | 1004.5 |
| 20260505002056 | 16 | 191 | 4.8 | 9.7 | 0.00 | 0.00 | 0.00 | 37 | 1004.4 |
| 20260505001557 | 16 | 181 | 3.2 | 9.7 | 0.00 | 0.00 | 0.00 | 36 | 1004.3 |
| 20260505001055 | 17 | 148 | 3.2 | 9.7 | 0.00 | 0.00 | 0.00 | 36 | 1004.2 |
| 20260505000555 | 17 | 157 | 4.8 | 9.7 | 0.00 | 0.00 | 0.00 | 35 | 1004.0 |
| 20260505000114 | 17 | 170 | 3.2 | 12.9 | 0.00 | 0.00 | 0.00 | 35 | 1004.1 |
| 20260504235557 | 17 | 163 | 3.2 | 9.7 | 0.00 | 0.00 | 0.00 | 34 | 1004.1 |
| 20260504235055 | 17 | 163 | 1.6 | 9.7 | 0.00 | 0.00 | 0.00 | 34 | 1004.2 |
| 20260504234555 | 18 | 188 | 3.2 | 11.3 | 0.00 | 0.00 | 0.00 | 32 | 1004.1 |
| 20260504234055 | 18 | 184 | 6.4 | 11.3 | 0.00 | 0.00 | 0.00 | 32 | 1004.1 |
| 20260504233554 | 18 | 205 | 4.8 | 9.7 | 0.00 | 0.00 | 0.00 | 32 | 1004.1 |
| 20260504233108 | 18 | 77 | 3.2 | 12.9 | 0.00 | 0.00 | 0.00 | 33 | 1004.1 |
| 20260504232554 | 18 | 191 | 4.8 | 12.9 | 0.00 | 0.00 | 0.00 | 33 | 1004.0 |
| 20260504232053 | 18 | 205 | 0.0 | 9.7 | 0.00 | 0.00 | 0.00 | 33 | 1004.1 |
| 20260504231553 | 18 | 202 | 3.2 | 11.3 | 0.00 | 0.00 | 0.00 | 33 | 1004.1 |
| 20260504231053 | 18 | 203 | 3.2 | 11.3 | 0.00 | 0.00 | 0.00 | 32 | 1004.1 |
| 20260504230553 | 18 | 221 | 1.6 | 8.0 | 0.00 | 0.00 | 0.00 | 32 | 1004.2 |
| 20260504230053 | 18 | 244 | 1.6 | 17.7 | 0.00 | 0.00 | 0.00 | 32 | 1004.1 |
| 20260504225553 | 18 | 265 | 4.8 | 17.7 | 0.00 | 0.00 | 0.00 | 32 | 1004.0 |
| 20260504225053 | 18 | 185 | 6.4 | 17.7 | 0.00 | 0.00 | 0.00 | 30 | 1003.9 |
| 20260504224601 | 18 | 215 | 9.7 | 17.7 | 0.00 | 0.00 | 0.00 | 31 | 1003.9 |
| 20260504224052 | 18 | 164 | 3.2 | 11.3 | 0.00 | 0.00 | 0.00 | 32 | 1003.9 |
| 20260504223551 | 19 | 201 | 3.2 | 22.5 | 0.00 | 0.00 | 0.00 | 31 | 1003.9 |
| 20260504223112 | 19 | 226 | 4.8 | 22.5 | 0.00 | 0.00 | 0.00 | 30 | 1003.9 |
| 20260504222552 | 19 | 229 | 8.0 | 16.1 | 0.00 | 0.00 | 0.00 | 31 | 1004.0 |
| 20260504222052 | 19 | 213 | 3.2 | 11.3 | 0.00 | 0.00 | 0.00 | 32 | 1004.0 |
| 20260504221550 | 19 | 185 | 3.2 | 12.9 | 0.00 | 0.00 | 0.00 | 31 | 1004.0 |
| 20260504221053 | 18 | 208 | 4.8 | 14.5 | 0.00 | 0.00 | 0.00 | 31 | 1004.1 |
| 20260504220550 | 18 | 247 | 4.8 | 16.1 | 0.00 | 0.00 | 0.00 | 32 | 1004.1 |
| 20260504220050 | 18 | 196 | 4.8 | 24.1 | 0.00 | 0.00 | 0.00 | 32 | 1004.1 |
| 20260504215550 | 19 | 217 | 6.4 | 24.1 | 0.00 | 0.00 | 0.00 | 33 | 1004.1 |
| 20260504215050 | 19 | 294 | 6.4 | 17.7 | 0.00 | 0.00 | 0.00 | 31 | 1004.1 |
| 20260504214550 | 18 | 217 | 4.8 | 20.9 | 0.00 | 0.00 | 0.00 | 32 | 1004.1 |
| 20260504214050 | 18 | 199 | 6.4 | 20.9 | 0.00 | 0.00 | 0.00 | 33 | 1004.2 |
| 20260504213548 | 19 | 201 | 6.4 | 14.5 | 0.00 | 0.00 | 0.00 | 32 | 1004.1 |
| 20260504213057 | 18 | 220 | 4.8 | 16.1 | 0.00 | 0.00 | 0.00 | 34 | 1004.2 |
| 20260504212548 | 18 | 250 | 6.4 | 27.4 | 0.00 | 0.00 | 0.00 | 33 | 1004.2 |
| 20260504212047 | 18 | 184 | 11.3 | 25.7 | 0.00 | 0.00 | 0.00 | 32 | 1004.2 |
| 20260504211546 | 18 | 224 | 9.7 | 20.9 | 0.00 | 0.00 | 0.00 | 33 | 1004.2 |
| 20260504211046 | 18 | 194 | 4.8 | 22.5 | 0.00 | 0.00 | 0.00 | 33 | 1004.2 |
| 20260504210548 | 18 | 259 | 8.0 | 22.5 | 0.00 | 0.00 | 0.00 | 34 | 1004.3 |
| 20260504210046 | 18 | 241 | 6.4 | 24.1 | 0.00 | 0.00 | 0.00 | 34 | 1004.4 |
| 20260504205545 | 18 | 183 | 4.8 | 17.7 | 0.00 | 0.00 | 0.00 | 34 | 1004.4 |
| 20260504205047 | 18 | 213 | 8.0 | 19.3 | 0.00 | 0.00 | 0.00 | 35 | 1004.5 |
| 20260504204548 | 18 | 197 | 4.8 | 17.7 | 0.00 | 0.00 | 0.00 | 33 | 1004.4 |
| 20260504204044 | 19 | 234 | 6.4 | 22.5 | 0.00 | 0.00 | 0.00 | 33 | 1004.5 |
| 20260504203542 | 19 | 202 | 9.7 | 22.5 | 0.00 | 0.00 | 0.00 | 33 | 1004.6 |
| 20260504203058 | 18 | 199 | 3.2 | 27.4 | 0.00 | 0.00 | 0.00 | 35 | 1004.5 |
| 20260504202542 | 18 | 193 | 11.3 | 27.4 | 0.00 | 0.00 | 0.00 | 33 | 1004.6 |
| 20260504202046 | 18 | 212 | 4.8 | 19.3 | 0.00 | 0.00 | 0.00 | 36 | 1004.7 |
| 20260504201542 | 18 | 326 | 8.0 | 19.3 | 0.00 | 0.00 | 0.00 | 35 | 1004.7 |
| 20260504201039 | 18 | 192 | 9.7 | 19.3 | 0.00 | 0.00 | 0.00 | 35 | 1004.8 |
| 20260504200540 | 18 | 228 | 11.3 | 24.1 | 0.00 | 0.00 | 0.00 | 35 | 1004.8 |
| 20260504200039 | 18 | 216 | 4.8 | 30.6 | 0.00 | 0.00 | 0.00 | 36 | 1004.9 |
| 20260504195538 | 18 | 239 | 4.8 | 30.6 | 0.00 | 0.00 | 0.00 | 35 | 1004.9 |
| 20260504195038 | 18 | 228 | 11.3 | 24.1 | 0.00 | 0.00 | 0.00 | 35 | 1004.9 |
| 20260504194538 | 18 | 275 | 3.2 | 25.7 | 0.00 | 0.00 | 0.00 | 33 | 1004.9 |
| 20260504194037 | 19 | 255 | 6.4 | 25.7 | 0.00 | 0.00 | 0.00 | 34 | 1005.1 |
| 20260504193540 | 19 | 294 | 6.4 | 17.7 | 0.00 | 0.00 | 0.00 | 35 | 1004.9 |
| 20260504193037 | 18 | 198 | 4.8 | 17.7 | 0.00 | 0.00 | 0.00 | 39 | 1005.1 |
| 20260504192535 | 18 | 190 | 4.8 | 17.7 | 0.00 | 0.00 | 0.00 | 36 | 1005.1 |
| 20260504192035 | 18 | 241 | 4.8 | 16.1 | 0.00 | 0.00 | 0.00 | 36 | 1005.2 |
| 20260504191535 | 18 | 308 | 6.4 | 17.7 | 0.00 | 0.00 | 0.00 | 36 | 1005.3 |
| 20260504191034 | 18 | 234 | 8.0 | 17.7 | 0.00 | 0.00 | 0.00 | 36 | 1005.4 |
| 20260504190534 | 18 | 5 | 4.8 | 12.9 | 0.00 | 0.00 | 0.00 | 38 | 1005.4 |
| 20260504190037 | 18 | 200 | 4.8 | 16.1 | 0.00 | 0.00 | 0.00 | 35 | 1005.4 |
| 20260504185535 | 18 | 213 | 6.4 | 25.7 | 0.00 | 0.00 | 0.00 | 38 | 1005.4 |
| 20260504185036 | 18 | 305 | 8.0 | 25.7 | 0.00 | 0.00 | 0.00 | 34 | 1005.3 |
| 20260504184534 | 18 | 268 | 4.8 | 24.1 | 0.00 | 0.00 | 0.00 | 36 | 1005.4 |
| 20260504184033 | 18 | 257 | 14.5 | 24.1 | 0.00 | 0.00 | 0.00 | 35 | 1005.4 |
| 20260504183533 | 18 | 278 | 9.7 | 16.1 | 0.00 | 0.00 | 0.00 | 34 | 1005.4 |
| 20260504183032 | 19 | 284 | 4.8 | 30.6 | 0.00 | 0.00 | 0.00 | 36 | 1005.5 |
| 20260504182532 | 18 | 300 | 11.3 | 30.6 | 0.00 | 0.00 | 0.00 | 39 | 1005.5 |
| 20260504182031 | 18 | 186 | 9.7 | 17.7 | 0.00 | 0.00 | 0.00 | 37 | 1005.4 |
| 20260504181536 | 17 | 269 | 3.2 | 17.7 | 0.00 | 0.00 | 0.00 | 43 | 1005.5 |
| 20260504181033 | 17 | 151 | 3.2 | 17.7 | 0.00 | 0.00 | 0.00 | 37 | 1005.7 |
| 20260504180531 | 17 | 336 | 8.0 | 19.3 | 0.00 | 0.00 | 0.00 | 39 | 1005.7 |
| 20260504180028 | 17 | 202 | 6.4 | 19.3 | 0.00 | 0.00 | 0.00 | 35 | 1005.7 |
| 20260504175528 | 17 | 204 | 6.4 | 25.7 | 0.00 | 0.00 | 0.00 | 39 | 1005.7 |
| 20260504175029 | 18 | 280 | 11.3 | 25.7 | 0.00 | 0.00 | 0.00 | 35 | 1005.6 |
| 20260504174627 | 18 | 271 | 6.4 | 24.1 | 0.00 | 0.00 | 0.00 | 39 | 1005.8 |
| 20260504174027 | 18 | 186 | 8.0 | 24.1 | 0.00 | 0.00 | 0.00 | 37 | 1005.9 |
| 20260504173527 | 18 | 217 | 6.4 | 30.6 | 0.00 | 0.00 | 0.00 | 36 | 1005.8 |
| 20260504173025 | 18 | 310 | 4.8 | 29.0 | 0.00 | 0.00 | 0.00 | 38 | 1005.8 |
| 20260504172525 | 18 | 248 | 3.2 | 29.0 | 0.00 | 0.00 | 0.00 | 40 | 1005.8 |
| 20260504172025 | 17 | 306 | 6.4 | 16.1 | 0.00 | 0.00 | 0.00 | 36 | 1005.8 |
| 20260504171523 | 17 | 236 | 3.2 | 22.5 | 0.00 | 0.00 | 0.00 | 38 | 1005.8 |
| 20260504171023 | 17 | 223 | 8.0 | 27.4 | 0.00 | 0.00 | 0.00 | 38 | 1006.0 |
| 20260504170522 | 17 | 219 | 8.0 | 27.4 | 0.00 | 0.00 | 0.00 | 38 | 1006.0 |